VK5ARG-5 Weather Reports


Display with metric or nautical units.
time (UTC)temp
F
wind
direction
speed
MPH
gust
MPH
rain 1hr
in
rain 24hr
in
rain mn
in
humidity
%
barometer
mb
20260503204528 51 293 19.0 26.0 0.00 0.01 0.01 99
20260503203546 51 292 20.0 26.0 0.00 0.01 0.01 99
20260503202542 51 295 20.0 28.0 0.00 0.00 0.00 99
20260503201526 51 294 20.0 28.0 0.00 0.00 0.00 98
20260503200522 51 293 18.0 24.0 0.00 0.00 0.00 98
20260503195527 51 291 18.0 24.0 0.00 0.00 0.00 98
20260503194525 51 290 17.0 23.0 0.00 0.00 0.00 98
20260503193528 50 292 18.0 24.0 0.00 0.00 0.00 98
20260503192525 51 289 16.0 21.0 0.00 0.00 0.00 97
20260503191521 51 288 20.0 27.0 0.00 0.00 0.00 97
20260503190546 51 290 17.0 24.0 0.00 0.00 0.00 97
20260503185523 51 288 19.0 24.0 0.00 0.00 0.00 97
20260503184527 51 289 19.0 28.0 0.00 0.00 0.00 97
20260503183524 51 292 21.0 30.0 0.00 0.00 0.00 96
20260503182528 51 293 21.0 27.0 0.00 0.00 0.00 95
20260503181525 51 291 19.0 27.0 0.00 0.00 0.00 94
20260503180521 51 294 19.0 23.0 0.00 0.00 0.00 94
20260503175526 51 295 19.0 25.0 0.00 0.00 0.00 94
20260503174522 51 297 19.0 26.0 0.00 0.00 0.00 94
20260503173526 51 298 20.0 27.0 0.00 0.00 0.00 95
20260503172544 51 295 18.0 23.0 0.00 0.00 0.00 94
20260503171528 51 294 15.0 20.0 0.00 0.00 0.00 94
20260503170546 51 300 17.0 24.0 0.00 0.00 0.00 94
20260503150523 51 295 18.0 25.0 0.00 0.00 0.00 90
20260503130522 51 290 14.0 23.0 0.00 0.00 0.00 87
20260503110520 52 293 10.0 14.0 0.00 0.00 0.00 89
20260503081527 55 286 14.0 21.0 0.00 0.01 0.00 83
20260503080523 55 295 16.0 23.0 0.00 0.01 0.00 79
20260503072526 57 290 19.0 28.0 0.00 0.02 0.00 72
20260503071522 58 290 22.0 28.0 0.00 0.02 0.00 71
20260503070526 57 297 22.0 27.0 0.00 0.02 0.00 72
20260503054523 59 294 24.0 32.0 0.00 0.03 0.00 63
20260503053528 60 291 25.0 36.0 0.00 0.03 0.00 62
20260503052525 60 286 27.0 35.0 0.00 0.03 0.00 61
20260503051542 60 287 23.0 31.0 0.00 0.03 0.00 61
20260503050547 60 286 23.0 32.0 0.00 0.03 0.00 61
20260503045522 59 279 26.0 35.0 0.00 0.03 0.00 60
20260503044527 59 282 31.0 39.0 0.00 0.04 0.00 60
20260503043523 59 281 27.0 34.0 0.00 0.04 0.00 61
20260503042528 58 294 20.0 32.0 0.00 0.05 0.00 68
20260503041525 58 296 22.0 30.0 0.00 0.06 0.00 70
20260503040521 59 294 24.0 32.0 0.00 0.06 0.00 66
20260503035526 59 290 25.0 35.0 0.00 0.07 0.00 66
20260503034522 59 289 27.0 36.0 0.00 0.07 0.00 64
20260503033527 58 286 33.0 43.0 0.00 0.07 0.00 65
20260503032522 58 285 30.0 40.0 0.00 0.08 0.00 64
20260503031550 59 288 27.0 36.0 0.00 0.09 0.00 64
20260503030546 58 284 35.0 46.0 0.00 0.10 0.00 64
20260503025520 58 285 28.0 38.0 0.00 0.10 0.00 64
20260503024547 57 288 28.0 40.0 0.00 0.10 0.00 66
20260503023543 58 285 31.0 41.0 0.00 0.10 0.00 65
20260503022527 59 283 33.0 46.0 0.00 0.10 0.00 62
20260503021524 59 283 31.0 40.0 0.00 0.10 0.00 64
20260503020529 58 289 32.0 42.0 0.00 0.10 0.00 65
20260503015606 59 287 28.0 40.0 0.00 0.10 0.00 66
20260503014520 58 289 28.0 38.0 0.00 0.10 0.00 66
20260503013547 57 288 31.0 41.0 0.00 0.10 0.00 66
20260503012522 57 292 29.0 39.0 0.00 0.10 0.00 69
20260503011527 56 292 25.0 34.0 0.00 0.10 0.00 78
20260503010523 55 297 23.0 33.0 0.00 0.10 0.00 83
20260503005550 55 297 23.0 31.0 0.00 0.10 0.00 81
20260503004545 55 299 23.0 31.0 0.00 0.10 0.00 82
20260503003520 54 298 24.0 34.0 0.00 0.10 0.00 82
20260503002547 54 305 25.0 32.0 0.00 0.10 0.00 82
20260503001522 54 308 25.0 32.0 0.00 0.10 0.00 84
20260503000528 54 308 23.0 34.0 0.00 0.10 0.00 83
20260502235523 53 312 23.0 30.0 0.00 0.10 0.10 85
20260502234549 53 311 23.0 31.0 0.00 0.10 0.10 87
20260502233546 53 311 19.0 26.0 0.00 0.10 0.10 88
20260502232542 52 309 21.0 28.0 0.00 0.10 0.10 89
20260502231526 51 315 18.0 26.0 0.00 0.10 0.10 90
20260502230522 51 312 18.0 25.0 0.00 0.10 0.10 90
20260502225526 51 313 20.0 26.0 0.00 0.10 0.10 90
20260502224523 50 310 19.0 25.0 0.00 0.10 0.10 91
20260502223549 50 307 20.0 27.0 0.00 0.10 0.10 91
20260502222525 50 303 20.0 27.0 0.00 0.10 0.10 91
20260502221520 50 306 24.0 32.0 0.00 0.10 0.10 92
20260502220546 49 309 23.0 31.0 0.00 0.10 0.10 92
20260502215521 49 311 24.0 30.0 0.00 0.10 0.10 93
20260502214527 49 310 22.0 30.0 0.00 0.10 0.10 93
20260502213523 50 311 21.0 26.0 0.00 0.10 0.10 93
20260502212528 50 312 20.0 26.0 0.00 0.10 0.10 92
20260502211524 50 315 21.0 27.0 0.00 0.10 0.10 92
20260502210521 50 316 18.0 26.0 0.00 0.10 0.10 93
20260502205525 50 316 19.0 27.0 0.00 0.10 0.10 93